When you browse on this site, cookies collect data to enhance your experience and personalize the content and advertising you see.
Visit our Privacy Policy to learn more. By continuing to use the site, you agree to this use of cookies and data.
  • In Austria
  • List of Countries
  • For 7 days
  • Water Temperature
  • Satellite Maps
  • Weather Map
  • News
  • Weather Widgets
  • user-avatar
    Login

    Hourly Weather Wadzhda

    Today, 13 December, Thursday

    Time Temperature Precipitation Wind Pressure Humidity
    00:00 +11°C° 0 mm 1 mps 714 mmHg 71%
    01:00 +11°C° 0 mm 1 mps 714 mmHg 71%
    02:00 +11°C° 0 mm 1 mps 714 mmHg 72%
    03:00 +10°C° 0 mm 2 mps 714 mmHg 72%
    04:00 +10°C° 0 mm 2 mps 713 mmHg 73%
    05:00 +10°C° 0 mm 2 mps 713 mmHg 74%
    06:00 +10°C° 0 mm 2 mps 713 mmHg 75%
    07:00 +11°C° 0 mm 3 mps 713 mmHg 71%
    08:00 +12°C° 0 mm 3 mps 713 mmHg 68%
    09:00 +12°C° 0 mm 4 mps 713 mmHg 65%
    10:00 +14°C° 0 mm 6 mps 713 mmHg 58%
    11:00 +15°C° 0 mm 8 mps 712 mmHg 51%
    12:00 +17°C° 0 mm 10 mps 712 mmHg 44%
    13:00 +16°C° 0 mm 11 mps 711 mmHg 48%
    14:00 +15°C° 0 mm 13 mps 711 mmHg 52%
    15:00 +15°C° 0 mm 15 mps 711 mmHg 57%
    16:00 +13°C° 1 mm 13 mps 711 mmHg 64%
    17:00 +11°C° 1 mm 10 mps 711 mmHg 71%
    18:00 +10°C° 1 mm 8 mps 711 mmHg 79%
    19:00 +9°C° 0.6 mm 8 mps 712 mmHg 76%
    20:00 +8°C° 0.6 mm 9 mps 712 mmHg 72%
    21:00 +8°C° 0.6 mm 9 mps 713 mmHg 69%
    22:00 +7°C° 0 mm 8 mps 713 mmHg 72%
    23:00 +7°C° 0 mm 8 mps 713 mmHg 74%

    Tomorrow, 14 December, Friday

    Time Temperature Precipitation Wind Pressure Humidity
    00:00 +7°C° 0 mm 8 mps 714 mmHg 76%
    01:00 +6°C° 0 mm 8 mps 714 mmHg 76%
    02:00 +6°C° 0 mm 8 mps 714 mmHg 77%
    03:00 +6°C° 0 mm 8 mps 713 mmHg 78%
    04:00 +6°C° 0 mm 8 mps 714 mmHg 79%
    05:00 +6°C° 0 mm 7 mps 714 mmHg 79%
    06:00 +6°C° 0 mm 7 mps 714 mmHg 80%
    07:00 +6°C° 0 mm 8 mps 715 mmHg 76%
    08:00 +7°C° 0 mm 9 mps 715 mmHg 72%
    09:00 +7°C° 0 mm 10 mps 716 mmHg 68%
    10:00 +8°C° 0 mm 10 mps 716 mmHg 64%
    11:00 +9°C° 0 mm 10 mps 716 mmHg 59%
    12:00 +9°C° 0 mm 11 mps 717 mmHg 55%
    13:00 +9°C° 0 mm 10 mps 717 mmHg 53%
    14:00 +11°C° 0 mm 9 mps 717 mmHg 52%
    15:00 +11°C° 0 mm 9 mps 717 mmHg 51%
    16:00 +10°C° 0 mm 7 mps 717 mmHg 56%
    17:00 +9°C° 0 mm 5 mps 717 mmHg 61%
    18:00 +8°C° 0 mm 4 mps 718 mmHg 66%
    19:00 +9°C° 0 mm 3 mps 718 mmHg 70%
    20:00 +8°C° 0 mm 2 mps 719 mmHg 73%
    21:00 +8°C° 0 mm 2 mps 719 mmHg 76%
    22:00 +8°C° 0 mm 2 mps 719 mmHg 77%
    23:00 +7°C° 0 mm 2 mps 719 mmHg 77%

    Day after tomorrow, 15 December, Saturday

    Time Temperature Precipitation Wind Pressure Humidity
    00:00 +8°C° 0 mm 1 mps 719 mmHg 78%
    01:00 +8°C° 0 mm 1 mps 719 mmHg 78%
    02:00 +8°C° 0 mm 1 mps 719 mmHg 78%
    03:00 +7°C° 0 mm 1 mps 719 mmHg 78%
    04:00 +7°C° 0 mm 1 mps 719 mmHg 77%
    05:00 +7°C° 0 mm 1 mps 719 mmHg 75%
    06:00 +7°C° 0 mm 1 mps 719 mmHg 74%
    07:00 +8°C° 0 mm 2 mps 719 mmHg 68%
    08:00 +9°C° 0 mm 2 mps 720 mmHg 62%
    09:00 +10°C° 0 mm 2 mps 720 mmHg 55%
    10:00 +13°C° 0 mm 2 mps 720 mmHg 49%
    11:00 +14°C° 0 mm 2 mps 720 mmHg 43%
    12:00 +15°C° 0 mm 2 mps 720 mmHg 36%
    13:00 +16°C° 0 mm 1 mps 720 mmHg 34%
    14:00 +16°C° 0 mm 1 mps 719 mmHg 32%
    15:00 +18°C° 0 mm 1 mps 719 mmHg 31%
    16:00 +15°C° 0 mm 1 mps 719 mmHg 37%
    17:00 +14°C° 0 mm 1 mps 719 mmHg 42%
    18:00 +12°C° 0 mm 1 mps 719 mmHg 48%
    19:00 +12°C° 0 mm 1 mps 719 mmHg 48%
    20:00 +12°C° 0 mm 1 mps 719 mmHg 47%
    21:00 +12°C° 0 mm 1 mps 719 mmHg 47%
    22:00 +12°C° 0 mm 1 mps 719 mmHg 46%
    23:00 +12°C° 0 mm 1 mps 719 mmHg 45%

    16 December, Sunday

    Time Temperature Precipitation Wind Pressure Humidity
    00:00 +11°C° 0 mm 1 mps 719 mmHg 44%
    01:00 +11°C° 0 mm 1 mps 718 mmHg 43%
    02:00 +10°C° 0 mm 2 mps 718 mmHg 42%
    03:00 +10°C° 0 mm 2 mps 718 mmHg 41%
    04:00 +10°C° 0 mm 2 mps 717 mmHg 40%
    05:00 +10°C° 0 mm 2 mps 717 mmHg 40%
    06:00 +10°C° 0 mm 2 mps 717 mmHg 39%
    07:00 +12°C° 0 mm 2 mps 718 mmHg 37%
    08:00 +14°C° 0 mm 2 mps 718 mmHg 35%
    09:00 +15°C° 0 mm 2 mps 719 mmHg 33%
    10:00 +17°C° 0 mm 2 mps 719 mmHg 31%
    11:00 +18°C° 0 mm 2 mps 719 mmHg 29%
    12:00 +19°C° 0 mm 2 mps 719 mmHg 26%
    13:00 +19°C° 0 mm 2 mps 719 mmHg 27%
    14:00 +19°C° 0 mm 2 mps 718 mmHg 27%
    15:00 +20°C° 0 mm 2 mps 718 mmHg 28%
    16:00 +18°C° 0 mm 2 mps 718 mmHg 34%
    17:00 +16°C° 0 mm 1 mps 718 mmHg 41%
    18:00 +14°C° 0 mm 1 mps 718 mmHg 47%
    19:00 +14°C° 0 mm 1 mps 719 mmHg 48%
    20:00 +13°C° 0 mm 1 mps 719 mmHg 49%
    21:00 +13°C° 0 mm 1 mps 719 mmHg 50%
    22:00 +13°C° 0 mm 1 mps 719 mmHg 50%
    23:00 +11°C° 0 mm 0 mps 719 mmHg 49%

    17 December, Monday

    Time Temperature Precipitation Wind Pressure Humidity
    00:00 +11°C° 0 mm 0 mps 719 mmHg 49%
    01:00 +11°C° 0 mm 0 mps 719 mmHg 50%
    02:00 +10°C° 0 mm 0 mps 718 mmHg 52%
    03:00 +10°C° 0 mm 0 mps 718 mmHg 53%
    04:00 +10°C° 0 mm 0 mps 718 mmHg 57%
    05:00 +9°C° 0 mm 0 mps 718 mmHg 60%
    06:00 +9°C° 0 mm 0 mps 718 mmHg 63%
    07:00 +10°C° 0 mm 0 mps 719 mmHg 61%
    08:00 +12°C° 0 mm 0 mps 719 mmHg 58%
    09:00 +13°C° 0 mm 0 mps 720 mmHg 55%
    10:00 +14°C° 0 mm 0 mps 720 mmHg 52%
    11:00 +15°C° 0 mm 0 mps 720 mmHg 49%
    12:00 +18°C° 0 mm 1 mps 720 mmHg 45%
    13:00 +18°C° 0 mm 1 mps 719 mmHg 46%
    14:00 +17°C° 0 mm 2 mps 719 mmHg 47%
    15:00 +17°C° 0 mm 2 mps 719 mmHg 48%
    16:00 +16°C° 0 mm 2 mps 719 mmHg 57%
    17:00 +15°C° 0 mm 2 mps 719 mmHg 65%
    18:00 +13°C° 0 mm 1 mps 719 mmHg 74%
    19:00 +13°C° 0 mm 1 mps 719 mmHg 76%
    20:00 +12°C° 0 mm 1 mps 719 mmHg 79%
    21:00 +12°C° 0 mm 1 mps 720 mmHg 82%
    22:00 +12°C° 0 mm 1 mps 719 mmHg 81%
    23:00 +11°C° 0 mm 1 mps 719 mmHg 81%

    18 December, Tuesday

    Time Temperature Precipitation Wind Pressure Humidity
    00:00 +11°C° 0 mm 1 mps 719 mmHg 80%
    01:00 +11°C° 0 mm 1 mps 719 mmHg 77%
    02:00 +11°C° 0 mm 1 mps 718 mmHg 74%
    03:00 +11°C° 0 mm 1 mps 718 mmHg 71%
    04:00 +11°C° 0 mm 1 mps 718 mmHg 69%
    05:00 +10°C° 0 mm 2 mps 718 mmHg 66%
    06:00 +10°C° 0 mm 2 mps 718 mmHg 64%
    07:00 +12°C° 0 mm 2 mps 718 mmHg 58%
    08:00 +13°C° 0 mm 2 mps 718 mmHg 52%
    09:00 +14°C° 0 mm 2 mps 719 mmHg 47%
    10:00 +16°C° 0 mm 2 mps 718 mmHg 42%
    11:00 +17°C° 0 mm 2 mps 718 mmHg 37%
    12:00 +19°C° 0 mm 2 mps 718 mmHg 32%
    13:00 +19°C° 0 mm 3 mps 718 mmHg 32%
    14:00 +20°C° 0 mm 3 mps 717 mmHg 31%
    15:00 +20°C° 0 mm 3 mps 717 mmHg 31%
    16:00 +18°C° 0 mm 2 mps 716 mmHg 37%
    17:00 +16°C° 0 mm 2 mps 716 mmHg 43%
    18:00 +15°C° 0 mm 1 mps 716 mmHg 48%
    19:00 +14°C° 0 mm 1 mps 716 mmHg 49%
    20:00 +14°C° 0 mm 1 mps 717 mmHg 50%
    21:00 +14°C° 0 mm 1 mps 717 mmHg 50%
    22:00 +13°C° 0 mm 1 mps 717 mmHg 50%
    23:00 +13°C° 0 mm 1 mps 716 mmHg 50%
    Show more